Location: USNO
(38.9242°N, 77.0663°W)
Time: 05:57:25
(UTC-04:00)

Tiangong 1 - Pass Details

Date: 16 October 2017
Orbit: 292 x 319 km, 42.8° (Epoch: 22 October)

Event Time Altitude Azimuth Distance (km) Brightness Sun altitude
Rises 18:51:01 0° 289° (WNW) 2,050 6.0 -5.3°
Reaches altitude 10° 18:53:01 10° 288° (WNW) 1,214 4.8 -5.7°
Maximum altitude 18:55:44 76° 203° (SSW) 326 0.8 -6.2°
Drops below altitude 10° 18:58:24 10° 117° (ESE) 1,194 3.1 -6.7°
Enters shadow 18:59:04 - 116° (ESE) 1,467 3.5 -6.8°
